Regional Weather Roundup
Issued by NWS Albany, NY

Home | Current Version | Previous Version | Text Only | Print | Product List | Glossary On
Versions: 1 2 3 4 5 6 7 8 9 10 11 12 13 14 15 16 17 18 19 20 21 22 23 24 25 26 27
000
ASUS41 KALY 211710
RWRALY

NEW YORK STATE HOURLY WEATHER ROUNDUP
NATIONAL WEATHER SERVICE ALBANY NY
1200 PM EST TUE FEB 21 2017

NOTE: "FAIR" INDICATES FEW OR NO CLOUDS BELOW 12,000 FEET WITH NO
SIGNIFICANT WEATHER AND/OR NO OBSTRUCTIONS TO VISIBILITY.

NYZ032-033-038>043-046>054-057>066-NYZ062>081-082-084-211800-
EAST


CITY           SKY/WX    TMP DP  RH WIND       PRES   REMARKS
ALBANY         CLOUDY    38  16  40 S14G21    30.27F WCI  30
GLENS FALLS    CLOUDY    37  17  44 S9        30.26F WCI  30
POUGHKEEPSIE   MOSUNNY   42  20  41 SW6       30.31F
NEWBURGH       PTSUNNY   41  21  45 CALM      30.32F
MONTGOMERY     CLOUDY    42  22  44 S5        30.29F
WHITE PLAINS   MOSUNNY   42  23  46 SW6       30.31F
ISLIP          PTSUNNY   44  27  51 SE8       30.34F
NEW YORK CITY  CLOUDY    46  26  45 SW12      30.34F
CENTRAL PARK   MOSUNNY   45  25  45 VRB6      30.36F
$$

NYZ005>009-017-018-044>046-055-056-211800-
CENTRAL


CITY           SKY/WX    TMP DP  RH WIND       PRES   REMARKS
FULTON         CLOUDY    39  19  44 SE7G17    30.09F WCI  34
SYRACUSE       CLOUDY    44  18  35 SE13      30.11F
ROME           MOSUNNY   37  19  48 SE12      30.19F WCI  29
ELMIRA         PTSUNNY   46  18  32 SW13      30.13F
BINGHAMTON     CLOUDY    37  14  38 S13G18    30.14F WCI  29
MONTICELLO     CLOUDY    39  18  41 S8        30.25F WCI  34
$$

NYZ026>034-041>043-087-211800-
NORTH


CITY           SKY/WX    TMP DP  RH WIND       PRES   REMARKS
WATERTOWN      CLOUDY    44  18  35 VRB6      30.08F
FORT DRUM      NOT AVBL
OGDENSBURG     FAIR      42  17  37 CALM      30.08F
MASSENA        CLOUDY    33  20  58 E9        30.12F WCI  25
SARANAC LAKE   CLOUDY    38  11  32 S3        30.08F
PLATTSBURGH    CLOUDY    38  18  44 SE18      30.16F WCI  28
$$

NYZ001>004-010>016-019>021-085-211800-
WEST


CITY           SKY/WX    TMP DP  RH WIND       PRES   REMARKS
NIAGARA FALLS  CLOUDY    54  28  36 S14G22    29.97F
BUFFALO        CLOUDY    54  29  38 S17       29.99F
DUNKIRK        CLOUDY    54  32  43 S17G25    29.99F
JAMESTOWN      MOSUNNY   48  27  43 S13       30.03F
WELLSVILLE     CLOUDY    48  20  32 S13G23    30.07F
ROCHESTER      CLOUDY    50  25  37 S10       30.02F
PENN YAN       PTSUNNY   46  20  35 S18G24    30.06F
$$

             KEY
       WCI = WIND CHILL INDEX
       VSB = VISIBILITY
       HX  = HEAT INDEX
$$




USA.gov is the U.S. government's official web portal to all federal, state and local government web resources and services.